Weather Roundup
Issued by NWS

Home | Current Version | Previous Version | Text Only | Print | Product List | Glossary On
Versions: 1 2 3 4 5 6 7 8 9 10 11 12 13 14 15 16 17 18 19 20 21 22 23 24 25 26 27 28 29 30 31 32 33 34 35 36 37 38 39 40 41 42 43 44 45 46 47 48 49 50
000
NZUS93 KARX 301959
HRRWXR

CURRENT HOURLY OBSERVATIONS ACROSS
MUCH OF THE UPPER MISSISSIPPI VALLEY
NATIONAL WEATHER SERVICE LA CROSSE WI
300 PM CDT TUE JUN 30 2015


...SOUTHEAST MINNESOTA...


CITY           SKY/WX    TMP DP  RH WIND       PRES   REMARKS
ROCHESTER      MOSUNNY   73  61  65 N9        29.93F
ROCHESTER/MAYO FAIR      71  58  63 NW8       29.92F
WINONA         SUNNY     73  59  60 N9        29.90F
AUSTIN         MOSUNNY   73  63  68 NE9       29.91S
ALBERT LEA     PTSUNNY   77  57  50 NE9       29.91F
DODGE CENTER   MOSUNNY   72  61  68 NE8       29.93S
PRESTON        PTSUNNY   69  60  73 NE8       29.93S
OWATONNA       MOSUNNY   73  59  60 NE6       29.93S
FARIBAULT      SUNNY     73  61  64 N9        29.93S
$$

...ELSEWHERE IN MINNESOTA...


CITY           SKY/WX    TMP DP  RH WIND       PRES   REMARKS
MINNEAPOLIS    PTSUNNY   75  55  49 VRB3      29.92F
INTNL FALLS    MOSUNNY   70  48  45 MISG      29.97F
DULUTH         PTSUNNY   63  48  58 SE10      29.98F
RED WING       MOSUNNY   75  54  46 N7        29.90F
REDWOOD FALLS  CLOUDY    75  57  53 CALM      29.93S
MANKATO        PTSUNNY   73  57  56 NE5       29.92S
WORTHINGTON    CLOUDY    73  63  68 E6        29.94S
FAIRMONT       CLOUDY    73  57  56 N5        29.93R
$$

...SOUTHWEST WISCONSIN...


CITY           SKY/WX    TMP DP  RH WIND       PRES   REMARKS
LA CROSSE      SUNNY     74  59  59 NW9       29.88F
PRAIRIE DU CHI PTSUNNY   71  58  63 N10G16    29.88S
BOSCOBEL       MOSUNNY   78  61  55 NW9       29.87S
LONE ROCK      NOT AVBL
PLATTEVILLE    PTSUNNY   73  63  71 N9        29.88S
FORT MC COY    MOSUNNY   74  56  52 NW10      29.89F
VIROQUA        CLOUDY    71  60  67 NW10G16   29.90S
WIS DELLS      PTSUNNY   75  55  49 NW10      29.86S
$$

...ELSEWHERE IN WISCONSIN...


CITY           SKY/WX    TMP DP  RH WIND       PRES   REMARKS
MILWAUKEE      PTSUNNY   63  58  83 NE20      29.83R
MADISON        PTSUNNY   75  58  55 N8        29.84S
GREEN BAY      CLOUDY    68  58  70 NE6       29.85S
EAU CLAIRE     MOSUNNY   74  54  49 N10       29.90F
BLACK RVR FLS  FAIR      72  53  51 NW7       29.88F
MEDFORD        CLOUDY    63  53  70 N8        29.93R
WAUSAU         CLOUDY    66  52  60 N12       29.89S
WIS RAPIDS     MOSUNNY   73  50  44 N12G18    29.89S
MARSHFIELD     CLOUDY    70  53  54 N12G17    29.90S
RICE LAKE      PTSUNNY   69  52  55 N9        29.95F
$$

...NORTHEAST IOWA...


CITY           SKY/WX    TMP DP  RH WIND       PRES   REMARKS
DECORAH          N/A    N/A N/A N/A MISG        N/A
MASON CITY     PTSUNNY   76  61  59 N10       29.92S
CHARLES CITY   MOSUNNY   75  64  69 N8        29.90F
OELWEIN        MOSUNNY   77  61  57 N6G13     29.89S
$$

...ELSEWHERE IN IOWA...


CITY           SKY/WX    TMP DP  RH WIND       PRES   REMARKS
DES MOINES     CLOUDY    81  63  54 NW8       29.90S
IOWA CITY      MOSUNNY   81  64  56 NW7       29.87S
FORT DODGE     MOSUNNY   75  63  64 NW5       29.93S
$$

...NORTHERN ILLINOIS...


CITY           SKY/WX    TMP DP  RH WIND       PRES   REMARKS
CHICAGO-OHARE  PTSUNNY   76  59  55 NW9       29.81S
CHICAGO-MIDWAY PTSUNNY   78  59  51 N12       29.81R
MOLINE         PTSUNNY   82  62  50 NW8       29.85R
ROCKFORD       PTSUNNY   75  60  59 N12       29.86S
PEORIA         MOSUNNY   83  65  54 N7        29.84S
$$

NOTE: "FAIR" INDICATES FEW OR NO CLOUDS BELOW 12,000 FEET WITH NO
SIGNIFICANT WEATHER AND/OR OBSTRUCTIONS TO VISIBILITY. WIND
SPEEDS ARE IN MILES-PER-HOUR.



USA.gov is the U.S. government's official web portal to all federal, state and local government web resources and services.